Date String (YYYY-MM-DD hh:mm:ss) UTC,Instrument flags,absolute air pressure of the measurement (hPa),sample flow rate (lpm),inlet stack bypass flow (lpm),air temperature of the measurement (°C),ambient temperature measured by the external sensor (°C),aerosol sample conditioner tube jacket temperature (°C),OPC LED temperature (°C),internal box temperature (°C),relative humidity of the measurement (%),span deviation,mass concentration of particles derived from Lorenz-Mie calculation of OPC scattering (μg/m³),mass concentration of particles derived from Lorenz-Mie calculation of OPC scattering (μg/m³),mass concentration of particles derived from Lorenz-Mie calculation of OPC scattering (μg/m³)
DateTimeUTC,F1_M11,P_M11,Q1_M11,Q2_M11,T1_M11,T2_M11,T3_M11,T4_M11,T5_M11,U1_M11,ZSPAN_M11,X0_M11,X2_M11,X1_M11
2023-07-29 21:00:00,SystemResetWarning,0837.0,5.00,000.00,030.6,025.5,000.0,038.1,030.5,33.7,0000.0,0011.79,0005.52,0004.55
2023-07-29 21:01:00,SystemResetWarning,0837.0,4.98,000.00,030.5,025.9,000.0,038.2,030.6,33.8,0000.0,0012.17,0005.53,0004.55
2023-07-29 21:02:00,SystemResetWarning,0837.0,5.00,000.00,030.5,026.4,000.0,038.2,030.7,33.7,0000.0,0013.39,0005.54,0004.56
2023-07-29 21:03:00,SystemResetWarning,0837.0,5.01,000.00,030.5,026.8,000.0,038.3,030.8,34.3,0000.0,0013.57,0005.59,0004.58
2023-07-29 21:04:00,SystemResetWarning,0837.0,5.01,000.00,030.5,027.2,000.0,038.3,030.9,33.5,0000.0,0014.63,0005.63,0004.58
2023-07-29 21:05:00,SystemResetWarning,0837.0,4.99,000.00,030.5,027.5,000.0,038.4,031.0,32.7,0000.0,0015.22,0005.67,0004.60
2023-07-29 21:06:00,SystemResetWarning,0837.0,4.99,000.00,030.5,027.7,000.0,038.4,031.1,33.1,0000.0,0016.20,0005.73,0004.60
2023-07-29 21:07:00,SystemResetWarning,0836.9,5.00,000.00,030.5,026.7,000.0,038.3,031.0,33.3,0000.0,0017.03,0005.75,0004.62
2023-07-29 21:08:00,SystemResetWarning,0836.9,5.00,000.00,030.4,025.5,000.0,038.2,030.7,34.4,0000.0,0016.81,0005.77,0004.62
2023-07-29 21:09:00,SystemResetWarning,0836.9,5.04,000.00,030.4,025.3,000.0,038.2,030.7,34.1,0000.0,0016.25,0005.76,0004.62
2023-07-29 21:10:00,SystemResetWarning,0837.0,4.97,000.00,030.3,025.5,000.0,038.2,030.6,33.7,0000.0,0016.58,0005.76,0004.60
2023-07-29 21:11:00,SystemResetWarning,0837.0,5.01,000.00,030.3,025.9,000.0,038.2,030.6,33.8,0000.0,0017.15,0005.73,0004.59
2023-07-29 21:12:00,SystemResetWarning,0837.0,5.01,000.00,030.3,026.4,000.0,038.3,030.8,33.5,0000.0,0017.45,0005.72,0004.59
2023-07-29 21:13:00,SystemResetWarning,0837.0,4.99,000.00,030.3,026.8,000.0,038.3,030.9,32.6,0000.0,0015.99,0005.67,0004.58
2023-07-29 21:14:00,SystemResetWarning,0836.9,4.99,000.00,030.3,027.2,000.0,038.3,031.0,32.7,0000.0,0016.26,0005.63,0004.57
2023-07-29 21:15:00,SystemResetWarning,0837.0,5.00,000.00,030.4,027.5,000.0,038.3,031.0,33.0,0000.0,0015.32,0005.57,0004.56
2023-07-29 21:16:00,SystemResetWarning,0836.9,4.99,000.00,030.4,026.7,000.0,038.3,030.9,33.0,0000.0,0015.21,0005.56,0004.55
2023-07-29 21:17:00,SystemResetWarning,0836.8,5.00,000.00,030.3,025.4,000.0,038.1,030.7,33.7,0000.0,0015.42,0005.57,0004.55
2023-07-29 21:18:00,SystemResetWarning,0836.7,5.01,000.00,030.2,025.1,000.0,038.1,030.6,34.0,0000.0,0015.05,0005.58,0004.55
2023-07-29 21:19:00,SystemResetWarning,0836.8,5.02,000.00,030.1,025.4,000.0,038.1,030.5,34.1,0000.0,0014.93,0005.59,0004.55
2023-07-29 21:20:00,SystemResetWarning,0836.8,4.98,000.00,030.0,025.8,000.0,038.1,030.5,35.6,0000.0,0015.43,0005.62,0004.57
2023-07-29 21:21:00,SystemResetWarning,0836.8,5.03,000.00,030.2,026.3,000.0,038.2,030.8,35.3,0000.0,0015.08,0005.64,0004.59
2023-07-29 21:22:00,SystemResetWarning,0836.8,4.96,000.00,030.4,026.7,000.0,038.2,031.0,33.7,0000.0,0015.72,0005.65,0004.60
2023-07-29 21:23:00,SystemResetWarning,0836.8,5.02,000.00,030.5,027.2,000.0,038.2,031.0,32.0,0000.0,0016.46,0005.69,0004.60
2023-07-29 21:24:00,SystemResetWarning,0836.8,4.99,000.00,030.6,027.5,000.0,038.3,031.1,31.6,0000.0,0016.99,0005.72,0004.61
2023-07-29 21:25:00,SystemResetWarning,0836.8,4.99,000.00,030.7,027.8,000.0,038.3,031.2,31.5,0000.0,0017.81,0005.77,0004.63
2023-07-29 21:26:00,SystemResetWarning,0836.8,5.00,000.00,030.7,027.1,000.0,038.3,031.1,30.9,0000.0,0018.24,0005.83,0004.65
2023-07-29 21:27:00,SystemResetWarning,0836.8,5.00,000.00,030.7,025.7,000.0,038.2,030.8,30.3,0000.0,0017.78,0005.82,0004.66
2023-07-29 21:28:00,SystemResetWarning,0836.8,5.00,000.00,030.6,025.3,000.0,038.2,030.7,29.9,0000.0,0017.68,0005.80,0004.68
2023-07-29 21:29:00,SystemResetWarning,0836.8,5.01,000.00,030.5,025.6,000.0,038.2,030.6,30.4,0000.0,0017.87,0005.77,0004.68
2023-07-29 21:30:00,SystemResetWarning,0836.8,5.02,000.00,030.4,025.9,000.0,038.3,030.6,31.2,0000.0,0018.27,0005.79,0004.68
2023-07-29 21:31:00,SystemResetWarning,0836.8,4.99,000.00,030.4,026.4,000.0,038.3,030.7,31.3,0000.0,0019.25,0005.76,0004.67
2023-07-29 21:32:00,SystemResetWarning,0836.8,5.00,000.00,030.4,026.9,000.0,038.4,030.9,31.9,0000.0,0019.23,0005.75,0004.65
2023-07-29 21:33:00,SystemResetWarning,0836.8,5.00,000.00,030.4,027.3,000.0,038.4,031.0,32.1,0000.0,0018.43,0005.78,0004.65
2023-07-29 21:34:00,SystemResetWarning,0836.8,5.01,000.00,030.4,027.6,000.0,038.4,031.1,31.5,0000.0,0016.74,0005.80,0004.65
2023-07-29 21:35:00,SystemResetWarning,0836.8,4.99,000.00,030.4,027.7,000.0,038.4,031.1,31.9,0000.0,0016.35,0005.81,0004.65
2023-07-29 21:36:00,SystemResetWarning,0836.7,4.99,000.00,030.4,026.5,000.0,038.3,031.0,32.1,0000.0,0015.40,0005.81,0004.65
2023-07-29 21:37:00,SystemResetWarning,0836.7,5.00,000.00,030.3,025.5,000.0,038.2,030.8,32.4,0000.0,0015.00,0005.81,0004.64
2023-07-29 21:38:00,SystemResetWarning,0836.6,5.01,000.00,030.2,025.5,000.0,038.2,030.7,32.8,0000.0,0014.88,0005.81,0004.63
2023-07-29 21:39:00,SystemResetWarning,0836.7,5.00,000.00,030.1,025.8,000.0,038.2,030.6,33.6,0000.0,0015.02,0005.81,0004.62
2023-07-29 21:40:00,SystemResetWarning,0836.7,5.01,000.00,030.1,026.2,000.0,038.2,030.7,34.0,0000.0,0014.27,0005.76,0004.60
2023-07-29 21:41:00,SystemResetWarning,0836.8,4.98,000.00,030.1,026.7,000.0,038.2,030.8,34.7,0000.0,0014.22,0005.75,0004.58
2023-07-29 21:42:00,SystemResetWarning,0836.8,5.03,000.00,030.1,027.1,000.0,038.3,030.9,35.1,0000.0,0012.97,0005.71,0004.57
2023-07-29 21:43:00,SystemResetWarning,0836.8,4.97,000.00,030.3,027.5,000.0,038.3,031.1,35.2,0000.0,0013.60,0005.70,0004.56
2023-07-29 21:44:00,SystemResetWarning,0836.9,5.01,000.00,030.5,027.8,000.0,038.3,031.3,34.2,0000.0,0013.64,0005.69,0004.55
2023-07-29 21:45:00,SystemResetWarning,0836.8,4.99,000.00,030.7,027.4,000.0,038.2,031.3,34.1,0000.0,0013.41,0005.65,0004.53
2023-07-29 21:46:00,SystemResetWarning,0836.8,5.00,000.00,030.8,026.0,000.0,038.2,031.1,32.9,0000.0,0013.50,0005.67,0004.53
2023-07-29 21:47:00,SystemResetWarning,0836.8,5.01,000.00,030.7,025.4,000.0,038.1,030.9,32.4,0000.0,0013.39,0005.65,0004.50
2023-07-29 21:48:00,SystemResetWarning,0836.9,5.01,000.00,030.7,025.5,000.0,038.2,030.7,32.2,0000.0,0013.32,0005.60,0004.49
2023-07-29 21:49:00,SystemResetWarning,0836.9,5.00,000.00,030.6,025.9,000.0,038.3,030.7,32.5,0000.0,0014.03,0005.61,0004.48
2023-07-29 21:50:00,SystemResetWarning,0837.0,5.00,000.00,030.6,026.4,000.0,038.3,030.8,32.5,0000.0,0014.18,0005.59,0004.47
2023-07-29 21:51:00,SystemResetWarning,0836.9,5.00,000.00,030.5,026.8,000.0,038.4,031.0,31.7,0000.0,0014.07,0005.58,0004.46
2023-07-29 21:52:00,SystemResetWarning,0837.0,5.01,000.00,030.6,027.2,000.0,038.4,031.1,31.9,0000.0,0013.43,0005.54,0004.47
2023-07-29 21:53:00,SystemResetWarning,0837.0,4.99,000.00,030.6,027.5,000.0,038.5,031.2,32.2,0000.0,0013.24,0005.56,0004.48
2023-07-29 21:54:00,SystemResetWarning,0837.1,4.98,000.00,030.6,026.5,000.0,038.4,031.0,32.9,0000.0,0013.41,0005.57,0004.50
2023-07-29 21:55:00,SystemResetWarning,0837.1,5.01,000.00,030.5,025.4,000.0,038.3,030.8,32.5,0000.0,0014.43,0005.61,0004.53
2023-07-29 21:56:00,SystemResetWarning,0837.1,5.01,000.00,030.4,025.3,000.0,038.2,030.7,31.8,0000.0,0014.98,0005.64,0004.55
2023-07-29 21:57:00,SystemResetWarning,0837.1,5.00,000.00,030.3,025.5,000.0,038.3,030.6,32.8,0000.0,0014.97,0005.63,0004.55
2023-07-29 21:58:00,SystemResetWarning,0837.1,4.99,000.00,030.2,026.0,000.0,038.3,030.7,33.4,0000.0,0015.44,0005.68,0004.57
2023-07-29 21:59:00,SystemResetWarning,0837.2,5.00,000.00,030.2,026.4,000.0,038.3,030.8,33.4,0000.0,0015.79,0005.69,0004.58
